Wind_Speed
63 60 39 30 26 16 10 8 7 12 11 15 20 25 31 28 29 28 30 36 34 29 29 30 26 27 28 30 32 35 38 44 43 45 49 52 55 62 58 63 61 64 65 66
59 61 37 27 26 19 10 5 1 8 8 17 17 24 26 26 24 26 32 33 33 34 24 26 31 36 35 33 31 32 36 40 48 46 49 44 47 57 63 56 63 68 66 65
53 56 36 24 19 20 10 5 7 7 10 10 14 19 26 26 27 29 31 31 32 29 28 29 29 31 39 31 32 38 36 36 38 38 43 47 50 48 58 64 62 60 64 65
49 54 39 24 18 13 6 2 5 9 9 11 14 13 26 31 24 28 31 28 29 27 29 33 35 36 37 41 39 38 38 38 40 44 47 49 52 50 53 57 60 60 62 60
49 52 42 22 17 12 5 8 7 4 6 9 10 12 14 24 26 23 28 31 34 35 40 38 40 43 44 44 45 42 44 49 51 51 48 52 54 54 53 54 56 54 54 55
48 46 45 22 17 13 7 8 14 12 8 9 13 14 15 19 22 24 25 29 32 37 38 40 42 45 47 49 48 46 46 46 46 47 48 46 44 48 50 49 49 53 58 60
46 44 41 26 19 16 11 7 7 10 10 10 15 16 17 19 21 25 28 32 36 39 38 39 39 37 38 38 38 38 38 40 42 37 34 36 40 46 49 49 54 60 62 64
45 46 41 31 29 18 14 11 10 10 9 9 12 15 13 19 23 23 25 30 33 34 38 40 39 34 36 37 38 38 41 38 34 31 33 39 42 51 53 57 62 66 64 66
45 44 41 39 31 25 17 17 17 14 13 16 18 20 23 17 21 25 28 30 32 35 37 36 38 38 37 39 41 39 35 31 30 33 39 44 49 52 57 63 63 63 63 67
45 46 42 41 35 32 24 18 18 19 19 20 21 24 23 20 22 26 32 35 34 35 37 38 40 42 42 40 36 35 36 31 34 40 43 47 53 57 59 61 62 64 67 69
44 45 43 43 42 40 35 25 21 22 27 25 23 28 29 29 28 28 31 33 35 37 38 40 38 36 35 34 36 36 35 33 37 42 45 50 54 54 58 61 64 67 67 69
43 43 41 43 44 45 38 33 25 21 27 27 26 31 29 31 32 33 33 35 37 37 35 35 36 36 34 34 35 35 35 34 40 45 50 53 54 57 60 62 64 67 70 74
42 39 41 45 48 42 41 37 23 24 28 32 33 35 29 27 29 32 33 33 33 33 35 37 37 35 33 32 32 30 31 35 39 47 51 51 56 61 63 64 68 71 74 76
44 41 40 43 49 46 44 43 26 23 26 30 36 35 31 25 28 30 33 34 34 36 35 36 36 32 30 30 29 32 36 41 44 48 52 56 60 63 68 70 74 75 77 80
45 41 41 44 45 48 49 43 29 24 25 26 34 29 32 29 30 32 30 32 35 37 39 38 32 29 29 29 32 36 41 46 50 51 56 59 62 67 73 77 78 80 81 83
46 41 45 44 48 49 51 51 34 26 26 26 26 29 32 33 34 33 32 33 36 37 36 34 32 28 30 33 37 41 46 50 53 57 59 63 67 71 74 77 80 82 83 85
48 46 44 46 48 49 49 51 33 30 26 25 27 33 33 33 32 31 34 36 35 33 33 33 33 34 36 39 43 47 50 54 58 61 64 68 72 73 76 79 80 82 86 89
52 47 47 48 48 51 50 51 39 30 30 29 32 37 37 33 32 32 35 34 33 32 33 35 37 40 43 45 48 51 54 58 61 64 67 69 71 75 77 79 82 86 90 95
50 51 51 50 47 47 43 51 53 41 36 37 38 35 33 34 36 36 35 35 35 34 35 38 42 45 47 49 52 56 59 60 63 65 68 71 75 77 79 82 87 91 95 97
51 48 51 51 51 43 50 51 51 42 32 46 38 36 36 38 38 37 37 36 37 38 40 42 45 47 50 53 56 58 61 63 66 69 72 74 77 79 82 87 92 95 97 100
50 51 53 56 51 45 51 53 53 50 41 41 38 39 40 40 41 40 39 40 41 42 44 45 48 50 53 56 59 61 64 66 68 71 74 76 79 83 88 92 94 96 99 101
52 56 57 52 49 48 54 49 53 50 36 39 41 41 45 45 44 43 43 43 45 46 49 51 53 55 58 61 63 65 66 69 71 74 76 80 84 87 89 92 96 99 101 104
55 56 54 54 49 52 55 56 56 46 38 37 42 43 44 47 48 47 47 47 48 49 52 54 57 59 61 62 64 66 69 72 74 76 80 83 86 89 92 95 100 102 105 106
60 58 58 54 53 56 59 55 57 45 45 42 42 47 47 47 50 51 51 51 52 53 56 58 59 60 62 65 68 70 72 74 77 80 84 87 90 93 97 102 102 105 107 106
56 55 55 55 54 58 63 59 52 48 46 46 42 46 50 51 51 54 56 57 58 58 58 59 61 64 67 69 70 72 75 78 81 86 90 92 95 98 102 104 106 107 108 113
54 53 56 55 60 62 61 57 56 44 44 48 50 50 52 55 58 58 60 62 62 63 63 64 65 68 70 73 76 78 81 85 89 92 93 95 99 102 105 107 105 108 112 113
Wind_Direction
347 350 346 359 4 355 335 301 194 183 175 194 187 190 197 203 207 199 206 211 215 222 227 232 239 254 259 259 252 254 252 246 254 261 263 262 267 260 259 258 274 274 280 287
345 349 348 358 1 4 5 4 155 170 176 189 187 194 197 199 206 213 211 218 230 231 230 234 245 248 253 254 257 260 263 260 264 269 267 273 269 262 260 269 271 272 277 284
345 348 344 347 2 359 1 107 140 176 182 174 193 214 203 204 216 212 218 231 236 233 239 246 254 251 247 255 255 257 261 263 266 270 269 267 266 269 262 267 272 279 285 287
344 345 344 339 346 354 348 193 193 192 198 198 213 198 209 214 228 232 233 234 236 242 250 254 256 258 260 260 264 263 267 273 273 274 276 276 274 278 277 276 282 284 285 287
339 344 344 336 339 342 325 257 270 242 213 212 203 215 224 221 231 234 243 249 250 253 253 256 256 258 263 262 260 265 275 278 277 275 284 284 284 283 283 282 283 285 288 290
333 345 345 341 340 326 295 270 266 271 263 249 242 238 239 243 245 245 251 251 250 253 254 258 261 263 265 261 266 267 272 275 276 280 282 282 282 282 282 283 288 293 295 295
329 338 345 354 338 336 295 262 263 279 280 281 272 258 246 247 251 255 257 255 257 256 260 267 274 271 276 273 274 274 275 276 278 277 282 275 275 279 284 284 292 295 294 293
323 330 345 347 354 323 307 263 263 273 274 277 277 274 266 251 251 259 260 264 269 272 270 271 274 271 273 276 274 275 278 277 276 274 275 268 272 279 283 286 289 292 292 293
318 323 335 341 345 337 303 282 278 267 269 269 267 270 273 274 260 259 265 263 264 269 269 268 270 270 269 270 274 274 270 265 266 266 265 268 275 280 284 286 288 290 292 292
313 319 326 334 337 344 324 277 271 281 282 279 260 258 265 263 263 256 257 262 263 264 268 271 272 273 273 272 271 272 268 254 256 261 263 272 279 283 287 288 290 292 293 294
307 311 320 327 330 334 334 290 260 260 269 270 259 262 265 264 260 255 253 258 265 269 269 269 269 267 268 271 271 269 268 259 263 270 277 278 281 285 288 292 292 292 296 301
301 308 313 320 323 325 335 322 266 259 266 267 258 263 266 270 268 263 261 265 267 269 269 268 267 267 269 270 270 269 266 270 274 275 277 279 282 291 293 291 297 301 301 301
297 303 309 311 317 324 334 330 277 263 264 266 268 272 278 267 265 263 262 259 261 266 269 272 273 276 280 277 268 270 275 274 272 278 283 281 288 294 295 300 300 300 300 300
290 301 302 307 311 317 321 331 298 275 276 270 265 272 270 262 260 262 266 271 273 273 274 275 277 282 275 266 271 275 273 270 272 281 289 287 293 298 299 299 296 298 301 304
290 296 295 302 308 317 317 326 308 273 276 264 264 260 261 259 261 267 271 276 277 278 279 281 279 264 260 264 267 268 268 275 282 285 285 292 299 298 298 299 301 302 304 307
287 291 294 295 303 310 318 320 305 269 266 260 255 254 257 261 260 265 274 282 278 276 277 276 272 267 265 268 271 275 278 283 287 290 296 295 294 293 296 298 301 303 305 307
284 287 288 293 300 305 315 321 317 278 265 263 259 259 260 265 269 275 280 281 278 273 271 272 273 274 275 277 279 283 288 290 292 292 292 292 293 295 297 300 302 304 307 310
281 281 286 290 295 304 307 311 321 281 263 262 261 259 260 267 275 277 277 277 273 270 269 270 272 273 274 277 281 284 285 286 287 288 289 293 295 297 300 302 304 307 310 311
274 276 281 286 293 299 295 309 317 310 270 262 258 265 268 273 273 269 274 278 276 271 269 269 271 273 276 278 280 282 285 287 289 292 294 296 297 300 303 305 307 308 309 309
275 276 278 283 289 287 293 305 312 316 277 261 267 267 268 267 271 271 273 276 276 274 272 272 274 276 279 282 284 287 289 291 292 294 295 298 302 303 305 306 308 309 309 309
269 270 276 279 286 288 287 304 305 309 278 268 268 270 272 273 271 272 273 275 276 276 277 278 280 281 283 285 287 288 290 292 293 295 298 301 302 305 306 308 309 309 310 311
270 270 274 279 283 282 289 298 301 307 289 267 263 269 271 273 276 276 276 276 277 279 280 281 283 285 286 287 289 291 293 296 298 300 301 303 305 306 308 308 309 311 311 310
263 268 272 282 282 281 288 293 300 299 294 281 267 262 267 272 276 279 278 279 281 282 283 284 284 285 287 289 292 294 296 297 299 300 302 303 305 307 307 308 311 310 310 310
264 268 275 278 275 280 284 290 296 290 279 288 279 270 270 273 277 281 281 280 282 285 286 286 286 289 291 293 294 294 296 299 300 300 302 304 306 306 308 310 310 309 309 308
267 271 275 274 279 274 279 288 290 281 277 278 281 274 270 272 275 279 282 282 283 285 288 289 290 291 292 293 294 296 297 298 299 301 302 304 305 307 309 310 309 309 309 310
266 266 270 277 275 277 280 281 283 277 276 279 282 284 280 277 276 277 280 283 285 285 286 288 288 290 293 294 294 295 297 299 300 302 304 305 306 308 310 309 309 310 311 313
Height
10615 10606 10596 10588 10584 10580 10578 10578 10580 10583 10587 10591 10595 10599 10604 10607 10611 10616 10620 10623 10626 10631 10635 10638 10641 10643 10645 10648 10650 10651 10652 10653 10654 10654 10653 10652 10653 10652 10651 10650 10646 10642 10638 10634
10614 10604 10597 10591 10587 10583 10580 10581 10583 10586 10588 10592 10595 10599 10603 10608 10611 10616 10619 10622 10626 10630 10632 10634 10637 10638 10640 10642 10643 10643 10644 10646 10647 10646 10645 10643 10643 10642 10641 10638 10635 10632 10627 10622
10614 10605 10598 10594 10590 10587 10585 10585 10585 10588 10591 10595 10598 10601 10604 10608 10610 10613 10616 10620 10623 10626 10627 10630 10632 10633 10634 10635 10636 10637 10638 10638 10637 10635 10635 10633 10632 10630 10629 10627 10624 10619 10614 10608
10614 10606 10600 10594 10590 10589 10589 10589 10589 10590 10592 10595 10600 10601 10603 10605 10607 10610 10614 10616 10619 10621 10623 10625 10626 10626 10628 10628 10627 10627 10626 10626 10626 10625 10625 10623 10619 10619 10617 10615 10611 10607 10601 10597
10613 10606 10600 10596 10591 10590 10590 10590 10591 10592 10593 10595 10598 10600 10602 10603 10605 10607 10608 10609 10612 10615 10617 10619 10621 10622 10623 10623 10622 10623 10621 10618 10618 10617 10614 10610 10607 10607 10606 10603 10599 10596 10591 10586
10612 10607 10599 10595 10592 10590 10590 10590 10591 10593 10593 10594 10596 10597 10599 10600 10603 10605 10605 10606 10605 10607 10609 10611 10613 10614 10615 10615 10616 10618 10615 10610 10609 10607 10604 10600 10596 10594 10595 10592 10589 10584 10579 10573
10608 10605 10600 10595 10591 10589 10589 10589 10590 10592 10591 10592 10592 10593 10596 10597 10598 10599 10600 10600 10601 10601 10602 10603 10605 10607 10606 10605 10606 10608 10604 10602 10598 10596 10596 10592 10589 10585 10584 10581 10578 10573 10566 10560
10603 10601 10599 10595 10591 10588 10586 10586 10588 10588 10589 10590 10589 10589 10592 10592 10593 10594 10595 10594 10594 10594 10595 10597 10599 10598 10598 10596 10598 10598 10596 10591 10590 10589 10587 10585 10582 10577 10574 10570 10567 10561 10554 10548
10597 10596 10594 10592 10589 10586 10584 10583 10585 10586 10587 10587 10586 10584 10584 10587 10588 10587 10588 10590 10590 10589 10588 10589 10590 10589 10590 10590 10588 10588 10587 10583 10582 10583 10581 10578 10574 10568 10565 10560 10555 10549 10542 10534
10589 10589 10588 10587 10586 10582 10580 10578 10578 10582 10581 10581 10581 10579 10580 10582 10583 10584 10582 10581 10583 10583 10581 10581 10581 10580 10580 10580 10580 10580 10578 10575 10575 10574 10573 10569 10564 10560 10554 10547 10541 10535 10527 10518
10582 10581 10582 10581 10580 10579 10577 10573 10571 10572 10576 10577 10576 10573 10574 10574 10576 10576 10575 10574 10574 10575 10573 10573 10572 10571 10570 10571 10571 10569 10567 10566 10565 10563 10561 10558 10553 10549 10542 10535 10528 10520 10510 10501
10575 10574 10575 10576 10574 10572 10571 10566 10565 10564 10565 10569 10570 10565 10567 10566 10565 10566 10566 10565 10564 10564 10562 10562 10562 10562 10563 10563 10561 10560 10559 10557 10555 10553 10549 10545 10540 10535 10529 10522 10512 10503 10495 10486
10569 10569 10567 10567 10569 10567 10563 10559 10557 10556 10557 10559 10562 10557 10559 10556 10555 10554 10554 10553 10552 10553 10552 10552 10552 10552 10552 10551 10549 10550 10550 10549 10545 10540 10535 10531 10526 10520 10511 10505 10497 10490 10483 10474
10562 10563 10561 10560 10558 10559 10557 10552 10549 10548 10548 10550 10551 10550 10550 10549 10547 10546 10545 10544 10543 10542 10543 10543 10543 10543 10542 10541 10541 10540 10539 10537 10533 10529 10524 10518 10513 10505 10495 10489 10482 10474 10465 10455
10555 10556 10554 10553 10551 10551 10548 10544 10541 10540 10540 10543 10542 10544 10540 10541 10541 10539 10537 10535 10534 10533 10532 10532 10534 10532 10532 10535 10532 10530 10527 10523 10519 10517 10512 10505 10497 10489 10481 10471 10464 10456 10447 10435
10546 10546 10546 10545 10544 10542 10540 10533 10533 10532 10532 10534 10535 10535 10533 10533 10532 10530 10528 10527 10525 10523 10522 10522 10522 10524 10524 10523 10521 10518 10514 10510 10506 10500 10495 10489 10483 10477 10468 10459 10450 10438 10429 10418
10536 10536 10536 10536 10535 10535 10532 10526 10524 10524 10525 10526 10527 10525 10525 10524 10523 10521 10521 10519 10517 10514 10513 10512 10513 10513 10512 10509 10506 10503 10500 10495 10490 10485 10481 10474 10468 10461 10452 10442 10431 10421 10409 10397
10524 10523 10524 10526 10525 10527 10521 10516 10517 10516 10516 10517 10517 10516 10516 10516 10515 10514 10511 10510 10509 10507 10505 10504 10503 10501 10498 10496 10494 10491 10487 10483 10478 10473 10467 10460 10451 10442 10433 10423 10412 10400 10387 10374
10513 10513 10513 10516 10516 10516 10513 10507 10508 10509 10510 10506 10505 10508 10508 10506 10504 10503 10502 10500 10499 10498 10497 10495 10493 10490 10488 10485 10482 10478 10473 10468 10462 10455 10448 10441 10432 10423 10413 10403 10391 10380 10369 10355
10500 10501 10501 10505 10505 10506 10503 10499 10499 10499 10501 10490 10498 10500 10499 10496 10494 10494 10492 10491 10490 10489 10486 10484 10481 10479 10475 10471 10467 10462 10457 10451 10445 10439 10431 10422 10413 10403 10394 10382 10371 10359 10347 10334
10489 10490 10490 10491 10495 10496 10492 10489 10488 10491 10484 10487 10488 10489 10488 10486 10484 10482 10482 10481 10479 10477 10474 10472 10469 10465 10461 10457 10452 10446 10441 10436 10429 10421 10413 10404 10394 10384 10373 10361 10349 10338 10325 10311
10479 10477 10478 10479 10484 10485 10480 10480 10478 10476 10475 10476 10476 10476 10475 10474 10473 10471 10470 10468 10466 10464 10461 10458 10455 10451 10447 10442 10437 10431 10424 10417 10409 10401 10392 10383 10374 10364 10354 10342 10328 10315 10301 10287
10467 10466 10467 10469 10471 10471 10469 10467 10467 10467 10466 10463 10465 10464 10462 10462 10461 10460 10457 10455 10453 10450 10447 10444 10440 10436 10431 10426 10419 10412 10405 10398 10390 10381 10373 10363 10353 10343 10332 10320 10306 10291 10274 10260
10457 10458 10458 10458 10461 10458 10455 10454 10456 10455 10454 10453 10452 10451 10450 10449 10448 10447 10444 10441 10438 10436 10432 10428 10423 10418 10413 10407 10400 10394 10386 10378 10370 10362 10353 10343 10332 10320 10309 10297 10282 10268 10251 10237
10448 10448 10446 10446 10449 10443 10440 10442 10443 10441 10439 10439 10438 10437 10436 10435 10434 10432 10430 10426 10423 10420 10415 10411 10406 10400 10395 10389 10382 10374 10367 10359 10351 10341 10331 10321 10310 10299 10286 10271 10256 10241 10221 10204
10435 10433 10432 10436 10430 10427 10429 10429 10429 10428 10426 10426 10425 10422 10421 10419 10417 10415 10412 10410 10407 10402 10398 10394 10388 10383 10377 10370 10363 10355 10347 10338 10329 10319 10309 10299 10287 10274 10260 10248 10234 10211 10194 10175